PDT,Max TemperatureF,Mean TemperatureF,Min TemperatureF,Max Dew PointF,MeanDew PointF,Min DewpointF,Max Humidity, Mean Humidity, Min Humidity, Max Sea Level PressureIn, Mean Sea Level PressureIn, Min Sea Level PressureIn, Max VisibilityMiles, Mean VisibilityMiles, Min VisibilityMiles, Max Wind SpeedMPH, Mean Wind SpeedMPH, Max Gust SpeedMPH,PrecipitationIn, CloudCover, Events, WindDirDegrees
2013-7-1,88,76,64,68,62,57,85,62,43,30.06,29.98,29.94,10,10,10,9,5,,0.00,0,,280
2013-7-2,80,70,59,62,57,51,94,75,39,30.14,30.10,30.06,10,10,10,8,5,,0.00,3,,304
2013-7-3,79,68,57,57,53,50,86,60,36,30.18,30.13,30.06,10,10,10,12,4,,0.00,0,,292
2013-7-4,70,62,54,54,53,51,88,73,57,30.15,30.12,30.06,10,10,10,8,4,,0.00,7,,205
2013-7-5,72,62,51,54,52,50,95,75,52,30.07,30.04,29.98,10,10,10,9,3,,0.00,5,,254
2013-7-6,77,64,50,57,53,48,100,78,44,30.01,29.98,29.90,10,8,1,14,2,21,0.00,3,,218
2013-7-7,75,65,55,60,56,52,96,81,55,29.99,29.96,29.92,10,10,8,7,4,,0.00,4,,254
2013-7-8,75,62,50,59,54,50,95,75,54,30.12,30.08,30.00,10,10,10,8,4,,0.00,3,,244
2013-7-9,85,69,53,59,55,52,100,85,35,30.13,30.09,30.02,10,5,0,10,3,,0.00,1,Fog,187
2013-7-10,74,64,55,54,52,47,88,71,44,30.10,30.06,29.99,10,10,10,10,6,,0.00,3,,271
2013-7-11,71,60,49,49,47,45,86,67,41,30.12,30.07,30.02,10,10,10,10,5,,0.00,4,,213
2013-7-12,68,56,45,50,49,44,96,69,52,30.13,30.07,30.04,10,10,9,8,3,,0.00,3,Rain,209
2013-7-13,76,59,42,50,45,39,100,63,28,30.21,30.17,30.13,10,9,2,12,4,18,0.00,0,,66
2013-7-14,82,63,45,50,46,43,94,55,27,30.16,30.10,30.00,10,10,10,9,3,,0.00,0,,284
2013-7-15,79,62,47,52,48,44,90,54,29,30.07,30.00,29.91,10,10,10,18,6,21,0.00,0,,44
2013-7-16,82,67,52,56,50,47,81,49,30,29.92,29.88,29.81,10,10,10,10,4,,0.00,2,,29
2013-7-17,70,64,58,55,54,52,88,71,59,30.22,30.13,29.95,10,10,10,14,7,18,0.00,6,Rain,244
2013-7-18,77,63,50,58,54,49,95,71,50,30.25,30.21,30.14,10,10,9,7,2,,0.00,4,,10
2013-7-19,80,64,49,61,54,48,100,82,48,30.19,30.15,30.06,10,6,0,8,3,,0.00,1,Fog,215
2013-7-20,75,65,55,59,55,53,97,80,57,30.12,30.07,29.99,10,10,5,6,4,,0.00,4,,282
2013-7-21,75,64,53,59,55,53,100,84,57,30.01,29.99,29.94,10,9,2,9,4,,0.00,6,,256
2013-7-22,76,65,55,60,55,52,94,79,53,30.09,30.04,29.97,10,10,7,8,5,,0.00,6,,239
2013-7-23,85,68,51,57,54,49,100,84,30,30.09,30.06,29.99,10,5,0,9,3,,0.00,1,Fog-Rain,197
2013-7-24,86,69,52,59,55,51,96,61,33,30.09,30.05,30.01,10,10,10,10,3,,0.00,0,,286
2013-7-25,85,68,51,56,53,45,100,74,25,30.13,30.10,30.06,10,6,0,7,3,,0.00,2,Fog-Rain,231
2013-7-26,84,68,51,56,52,49,94,60,31,30.17,30.14,30.09,10,10,10,10,4,18,0.00,0,,248
2013-7-27,76,62,49,53,50,45,91,64,34,30.20,30.13,30.03,10,10,10,9,4,,0.00,2,,248
2013-7-28,70,60,51,53,51,48,94,76,52,30.06,30.03,29.99,10,10,10,12,5,20,0.00,5,,230
2013-7-29,75,64,53,55,52,50,91,64,44,30.04,30.01,29.98,10,10,10,8,3,,0.00,4,Rain,250
2013-7-30,75,63,51,58,54,50,94,76,53,30.16,30.13,30.05,10,10,4,9,4,,0.00,4,,254
2013-7-31,71,64,56,58,56,54,96,81,62,30.15,30.10,30.03,10,10,10,8,3,,0.00,5,Rain,260